Year,Month,Day,Hour,Minute,Value (Times are PST for temperature in C)
2018,10,22,00,00,8.30
2018,10,22,00,01,8.20
2018,10,22,00,02,8.10
2018,10,22,00,03,8.00
2018,10,22,00,04,7.80
2018,10,22,00,05,7.80
2018,10,22,00,06,7.70
2018,10,22,00,07,7.60
2018,10,22,00,08,7.60
2018,10,22,00,09,7.50
2018,10,22,00,10,7.50
2018,10,22,00,11,7.40
2018,10,22,00,12,7.40
2018,10,22,00,13,7.40
2018,10,22,00,14,7.40
2018,10,22,00,15,7.40
2018,10,22,00,16,7.40
2018,10,22,00,17,7.40
2018,10,22,00,18,7.40
2018,10,22,00,19,7.40
2018,10,22,00,20,7.40
2018,10,22,00,21,7.30
2018,10,22,00,22,7.30
2018,10,22,00,23,7.30
2018,10,22,00,24,7.30
2018,10,22,00,25,7.30
2018,10,22,00,26,7.30
2018,10,22,00,27,7.30
2018,10,22,00,28,7.30
2018,10,22,00,29,7.30
2018,10,22,00,30,7.30
2018,10,22,00,31,7.30
2018,10,22,00,32,7.30
2018,10,22,00,33,7.30
2018,10,22,00,34,7.30
2018,10,22,00,35,7.30
2018,10,22,00,36,7.20
2018,10,22,00,37,7.20
2018,10,22,00,38,7.20
2018,10,22,00,39,7.20
2018,10,22,00,40,7.20
2018,10,22,00,41,7.20
2018,10,22,00,42,7.30
2018,10,22,00,43,7.30
2018,10,22,00,44,7.30
2018,10,22,00,45,7.30
2018,10,22,00,46,7.30
2018,10,22,00,47,7.30
2018,10,22,00,48,7.30
2018,10,22,00,49,7.30
2018,10,22,00,50,7.30
2018,10,22,00,51,7.30
2018,10,22,00,52,7.30
2018,10,22,00,53,7.30
2018,10,22,00,54,7.30
2018,10,22,00,55,7.30
2018,10,22,00,56,7.30
2018,10,22,00,57,7.30
2018,10,22,00,58,7.30
2018,10,22,00,59,7.40
2018,10,22,01,00,7.40
2018,10,22,01,01,7.40
2018,10,22,01,02,7.50
2018,10,22,01,03,7.50
2018,10,22,01,04,7.60
2018,10,22,01,05,7.60
2018,10,22,01,06,7.60
2018,10,22,01,07,7.70
2018,10,22,01,08,7.70
2018,10,22,01,09,7.70
2018,10,22,01,10,7.70
2018,10,22,01,11,7.70
2018,10,22,01,12,7.70
2018,10,22,01,13,7.70
2018,10,22,01,14,7.70
2018,10,22,01,15,7.70
2018,10,22,01,16,7.70
2018,10,22,01,17,7.70
2018,10,22,01,18,7.60
2018,10,22,01,19,7.60
2018,10,22,01,20,7.50
2018,10,22,01,21,7.50
2018,10,22,01,22,7.50
2018,10,22,01,23,7.40
2018,10,22,01,24,7.40
2018,10,22,01,25,7.50
2018,10,22,01,26,7.50
2018,10,22,01,27,7.50
2018,10,22,01,28,7.50
2018,10,22,01,29,7.60
2018,10,22,01,30,7.60
2018,10,22,01,31,7.60
2018,10,22,01,32,7.60
2018,10,22,01,33,7.60
2018,10,22,01,34,7.60
2018,10,22,01,35,7.60
2018,10,22,01,36,7.60
2018,10,22,01,37,7.60
2018,10,22,01,38,7.60
2018,10,22,01,39,7.60
2018,10,22,01,40,7.60
2018,10,22,01,41,7.60
2018,10,22,01,42,7.60
2018,10,22,01,43,7.60
2018,10,22,01,44,7.60
2018,10,22,01,45,7.60
2018,10,22,01,46,7.60
2018,10,22,01,47,7.60
2018,10,22,01,48,7.60
2018,10,22,01,49,7.60
2018,10,22,01,50,7.60
2018,10,22,01,51,7.60
2018,10,22,01,52,7.60
2018,10,22,01,53,7.60
2018,10,22,01,54,7.50
2018,10,22,01,55,7.50
2018,10,22,01,56,7.50
2018,10,22,01,57,7.40
2018,10,22,01,58,7.40
2018,10,22,01,59,7.40
2018,10,22,02,00,7.40
2018,10,22,02,01,7.30
2018,10,22,02,02,7.30
2018,10,22,02,03,7.40
2018,10,22,02,04,7.40
2018,10,22,02,05,7.40
2018,10,22,02,06,7.40
2018,10,22,02,07,7.40
2018,10,22,02,08,7.40
2018,10,22,02,09,7.30
2018,10,22,02,10,7.30
2018,10,22,02,11,7.30
2018,10,22,02,12,7.30
2018,10,22,02,13,7.30
2018,10,22,02,14,7.30
2018,10,22,02,15,7.30
2018,10,22,02,16,7.30
2018,10,22,02,17,7.30
2018,10,22,02,18,7.30
2018,10,22,02,19,7.30
2018,10,22,02,20,7.30
2018,10,22,02,21,7.30
2018,10,22,02,22,7.30
2018,10,22,02,23,7.30
2018,10,22,02,24,7.30
2018,10,22,02,25,7.30
2018,10,22,02,26,7.30
2018,10,22,02,27,7.30
2018,10,22,02,28,7.30
2018,10,22,02,29,7.30
2018,10,22,02,30,7.30
2018,10,22,02,31,7.30
2018,10,22,02,32,7.30
2018,10,22,02,33,7.30
2018,10,22,02,34,7.30
2018,10,22,02,35,7.30
2018,10,22,02,36,7.30
2018,10,22,02,37,7.30
2018,10,22,02,38,7.30
2018,10,22,02,39,7.30
2018,10,22,02,40,7.30
2018,10,22,02,41,7.30
2018,10,22,02,42,7.30
2018,10,22,02,43,7.30
2018,10,22,02,44,7.30
2018,10,22,02,45,7.30
2018,10,22,02,46,7.30
2018,10,22,02,47,7.30
2018,10,22,02,48,7.30
2018,10,22,02,49,7.30
2018,10,22,02,50,7.30
2018,10,22,02,51,7.30
2018,10,22,02,52,7.30
2018,10,22,02,53,7.30
2018,10,22,02,54,7.30
2018,10,22,02,55,7.30
2018,10,22,02,56,7.30
2018,10,22,02,57,7.30
2018,10,22,02,58,7.20
2018,10,22,02,59,7.20
2018,10,22,03,00,7.20
2018,10,22,03,01,7.20
2018,10,22,03,02,7.10
2018,10,22,03,03,7.10
2018,10,22,03,04,7.10
2018,10,22,03,05,7.10
2018,10,22,03,06,7.10
2018,10,22,03,07,7.10
2018,10,22,03,08,7.10
2018,10,22,03,09,7.10
2018,10,22,03,10,7.10
2018,10,22,03,11,7.00
2018,10,22,03,12,7.00
2018,10,22,03,13,7.00
2018,10,22,03,14,6.90
2018,10,22,03,15,6.90
2018,10,22,03,16,6.90
2018,10,22,03,17,6.90
2018,10,22,03,18,6.80
2018,10,22,03,19,6.80
2018,10,22,03,20,6.80
2018,10,22,03,21,6.80
2018,10,22,03,22,6.80
2018,10,22,03,23,6.80
2018,10,22,03,24,6.80
2018,10,22,03,25,6.80
2018,10,22,03,26,6.80
2018,10,22,03,27,6.70
2018,10,22,03,28,6.70
2018,10,22,03,29,6.70
2018,10,22,03,30,6.60
2018,10,22,03,31,6.60
2018,10,22,03,32,6.60
2018,10,22,03,33,6.60
2018,10,22,03,34,6.60
2018,10,22,03,35,6.50
2018,10,22,03,36,6.50
2018,10,22,03,37,6.50
2018,10,22,03,38,6.50
2018,10,22,03,39,6.50
2018,10,22,03,40,6.50
2018,10,22,03,41,6.40
2018,10,22,03,42,6.40
2018,10,22,03,43,6.40
2018,10,22,03,44,6.30
2018,10,22,03,45,6.30
2018,10,22,03,46,6.30
2018,10,22,03,47,6.30
2018,10,22,03,48,6.20
2018,10,22,03,49,6.20
2018,10,22,03,50,6.20
2018,10,22,03,51,6.10
2018,10,22,03,52,6.10
2018,10,22,03,53,6.10
2018,10,22,03,54,6.10
2018,10,22,03,55,6.10
2018,10,22,03,56,6.10
2018,10,22,03,57,6.10
2018,10,22,03,58,6.10
2018,10,22,03,59,6.10
2018,10,22,04,00,6.10
2018,10,22,04,01,6.10
2018,10,22,04,02,6.10
2018,10,22,04,03,6.10
2018,10,22,05,04,7.40
2018,10,22,05,05,7.40
2018,10,22,05,06,7.50
2018,10,22,05,07,7.50
2018,10,22,05,08,7.50
2018,10,22,05,09,7.50
2018,10,22,05,10,7.50
2018,10,22,05,11,7.50
2018,10,22,05,12,7.50
2018,10,22,05,13,7.60
2018,10,22,05,14,7.60
2018,10,22,05,15,7.60
2018,10,22,05,16,7.60
2018,10,22,05,17,7.60
2018,10,22,05,18,7.60
2018,10,22,05,19,7.60
2018,10,22,05,20,7.60
2018,10,22,05,21,7.60
2018,10,22,05,22,7.60
2018,10,22,05,23,7.60
2018,10,22,05,24,7.60
2018,10,22,05,25,7.60
2018,10,22,05,26,7.60
2018,10,22,05,27,7.60
2018,10,22,05,28,7.60
2018,10,22,05,29,7.60
2018,10,22,05,30,7.60
2018,10,22,05,31,7.60
2018,10,22,05,32,7.60
2018,10,22,05,33,7.60
2018,10,22,05,34,7.60
2018,10,22,05,35,7.60
2018,10,22,05,36,7.60
2018,10,22,05,37,7.60
2018,10,22,05,38,7.60
2018,10,22,05,39,7.60
2018,10,22,05,40,7.60
2018,10,22,05,41,7.60
2018,10,22,05,42,7.60
2018,10,22,05,43,7.60
2018,10,22,05,44,7.60
2018,10,22,05,45,7.60
2018,10,22,05,46,7.60
2018,10,22,05,47,7.60
2018,10,22,05,48,7.60
2018,10,22,05,49,7.60
2018,10,22,05,50,7.60
2018,10,22,05,51,7.60
2018,10,22,05,52,7.70
2018,10,22,05,53,7.70
2018,10,22,05,54,7.70
2018,10,22,05,55,7.70
2018,10,22,05,56,7.70
2018,10,22,05,57,7.70
2018,10,22,05,58,7.70
2018,10,22,05,59,7.70
2018,10,22,06,00,7.70
2018,10,22,06,01,7.70
2018,10,22,06,02,7.70
2018,10,22,06,03,7.70
2018,10,22,06,04,7.70
2018,10,22,06,05,7.70
2018,10,22,06,06,7.60
2018,10,22,06,07,7.60
2018,10,22,06,08,7.60
2018,10,22,06,09,7.60
2018,10,22,06,10,7.60
2018,10,22,06,11,7.60
2018,10,22,06,12,7.60
2018,10,22,06,13,7.60
2018,10,22,06,14,7.60
2018,10,22,06,15,7.60
2018,10,22,06,16,7.60
2018,10,22,06,17,7.60
2018,10,22,06,18,7.60
2018,10,22,06,19,7.50
2018,10,22,06,20,7.50
2018,10,22,06,21,7.50
2018,10,22,06,22,7.50
2018,10,22,06,23,7.50
2018,10,22,06,24,7.50
2018,10,22,06,25,7.50
2018,10,22,06,26,7.50
2018,10,22,06,27,7.50
2018,10,22,06,28,7.50
2018,10,22,06,29,7.40
2018,10,22,06,30,7.40
2018,10,22,06,31,7.40
2018,10,22,06,32,7.40
2018,10,22,06,33,7.40
2018,10,22,06,34,7.40
2018,10,22,06,35,7.30
2018,10,22,06,36,7.30
2018,10,22,06,37,7.30
2018,10,22,06,38,7.30
2018,10,22,06,39,7.30
2018,10,22,06,40,7.30
2018,10,22,06,41,7.30
2018,10,22,06,42,7.30
2018,10,22,06,43,7.30
2018,10,22,06,44,7.30
2018,10,22,06,45,7.30
2018,10,22,06,46,7.30
2018,10,22,06,47,7.20
2018,10,22,06,48,7.20
2018,10,22,06,49,7.20
2018,10,22,06,50,7.20
2018,10,22,06,51,7.20
2018,10,22,06,52,7.20
2018,10,22,06,53,7.10
2018,10,22,06,54,7.10
2018,10,22,06,55,7.10
2018,10,22,06,56,7.10
2018,10,22,06,57,7.10
2018,10,22,06,58,7.10
2018,10,22,06,59,7.10
2018,10,22,07,00,7.00
2018,10,22,07,01,7.00
2018,10,22,07,02,7.00
2018,10,22,07,03,7.00
2018,10,22,07,04,7.00
2018,10,22,07,05,7.00
2018,10,22,07,06,7.00
2018,10,22,07,07,7.00
2018,10,22,07,08,7.00
2018,10,22,07,09,7.00
2018,10,22,07,10,7.00
2018,10,22,07,11,7.00
2018,10,22,07,12,7.00
2018,10,22,07,13,6.90
2018,10,22,07,14,6.90
2018,10,22,07,15,6.90
2018,10,22,07,16,6.90
2018,10,22,07,17,6.90
2018,10,22,07,18,6.90
2018,10,22,07,19,6.90
2018,10,22,07,20,6.90
2018,10,22,07,21,6.90
2018,10,22,07,22,6.90
2018,10,22,07,23,6.90
2018,10,22,07,24,6.90
2018,10,22,07,25,6.90
2018,10,22,07,26,6.90
2018,10,22,07,27,6.90
2018,10,22,07,28,6.90
2018,10,22,07,29,6.90
2018,10,22,07,30,6.90
2018,10,22,07,31,6.90
2018,10,22,07,32,6.90
2018,10,22,07,33,6.90
2018,10,22,07,34,6.90
2018,10,22,07,35,6.80
2018,10,22,07,36,6.80
2018,10,22,07,37,6.80
2018,10,22,07,38,6.80
2018,10,22,07,39,6.80
2018,10,22,07,40,6.80
2018,10,22,07,41,6.80
2018,10,22,07,42,6.70
2018,10,22,07,43,6.70
2018,10,22,07,44,6.70
2018,10,22,07,45,6.70
2018,10,22,07,46,6.70
2018,10,22,07,47,6.70
2018,10,22,07,48,6.70
2018,10,22,07,49,6.70
2018,10,22,07,50,6.70
2018,10,22,07,51,6.70
2018,10,22,07,52,6.60
2018,10,22,07,53,6.60
2018,10,22,07,54,6.60
2018,10,22,07,55,6.60
2018,10,22,07,56,6.60
2018,10,22,07,57,6.60
2018,10,22,07,58,6.60
2018,10,22,07,59,6.60
2018,10,22,08,00,6.60
2018,10,22,08,01,6.60
2018,10,22,08,02,6.50
2018,10,22,08,03,6.50
2018,10,22,08,04,6.50
2018,10,22,08,05,6.50
2018,10,22,08,06,6.50
2018,10,22,08,07,6.40
2018,10,22,08,08,6.40
2018,10,22,08,09,6.40
2018,10,22,08,10,6.40
2018,10,22,08,11,6.40
2018,10,22,08,12,6.40
2018,10,22,08,13,6.40
2018,10,22,08,14,6.40
2018,10,22,08,15,6.30
2018,10,22,08,16,6.30
2018,10,22,08,17,6.30
2018,10,22,08,18,6.30
2018,10,22,08,19,6.30
2018,10,22,08,20,6.30
2018,10,22,08,21,6.30
2018,10,22,08,22,6.30
2018,10,22,08,23,6.30
2018,10,22,08,24,6.30
2018,10,22,08,25,6.20
2018,10,22,08,26,6.20
2018,10,22,08,27,6.20
2018,10,22,08,28,6.20
2018,10,22,08,29,6.20
2018,10,22,08,30,6.20
2018,10,22,08,31,6.20
2018,10,22,08,32,6.20
2018,10,22,08,33,6.20
2018,10,22,08,34,6.20
2018,10,22,08,35,6.20
2018,10,22,08,36,6.20
2018,10,22,08,37,6.20
2018,10,22,08,38,6.20
2018,10,22,08,39,6.20
2018,10,22,08,40,6.20
2018,10,22,08,41,6.20
2018,10,22,08,42,6.20
2018,10,22,08,43,6.20
2018,10,22,08,44,6.20
2018,10,22,08,45,6.20
2018,10,22,08,46,6.30
2018,10,22,08,47,6.30
2018,10,22,08,48,6.30
2018,10,22,08,49,6.30
2018,10,22,08,50,6.30
2018,10,22,08,51,6.30
2018,10,22,08,52,6.30
2018,10,22,08,53,6.30
2018,10,22,08,54,6.30
2018,10,22,08,55,6.30
2018,10,22,08,56,6.30
2018,10,22,08,57,6.30
2018,10,22,08,58,6.40
2018,10,22,08,59,6.40
2018,10,22,09,00,6.40
2018,10,22,09,01,6.40
2018,10,22,09,02,6.50
2018,10,22,09,03,6.50
2018,10,22,09,04,6.50
2018,10,22,09,05,6.60
2018,10,22,09,06,6.60
2018,10,22,09,07,6.60
2018,10,22,09,08,6.60
2018,10,22,09,09,6.60
2018,10,22,09,10,6.60
2018,10,22,09,11,6.60
2018,10,22,09,12,6.60
2018,10,22,09,13,6.70
2018,10,22,09,14,6.70
2018,10,22,09,15,6.70
2018,10,22,09,16,6.70
2018,10,22,09,17,6.80
2018,10,22,09,18,6.80
2018,10,22,09,19,6.80
2018,10,22,09,20,6.80
2018,10,22,09,21,6.90
2018,10,22,09,22,6.90
2018,10,22,09,23,6.90
2018,10,22,09,24,6.90
2018,10,22,09,25,6.90
2018,10,22,09,26,6.90
2018,10,22,09,27,7.00
2018,10,22,09,28,7.00
2018,10,22,09,29,7.00
2018,10,22,09,30,7.10
2018,10,22,09,31,7.10
2018,10,22,09,32,7.10
2018,10,22,09,33,7.20
2018,10,22,09,34,7.20
2018,10,22,09,35,7.20
2018,10,22,09,36,7.30
2018,10,22,09,37,7.30
2018,10,22,09,38,7.30
2018,10,22,09,39,7.30
2018,10,22,09,40,7.40
2018,10,22,09,41,7.40
2018,10,22,09,42,7.40
2018,10,22,09,43,7.40
2018,10,22,09,44,7.40
2018,10,22,09,45,7.40
2018,10,22,09,46,7.40
2018,10,22,09,47,7.50
2018,10,22,09,48,7.50
2018,10,22,09,49,7.50
2018,10,22,09,50,7.60
2018,10,22,09,51,7.60
2018,10,22,09,52,7.70
2018,10,22,09,53,7.70
2018,10,22,09,54,7.70
2018,10,22,09,55,7.70
2018,10,22,09,56,7.70
2018,10,22,09,57,7.70
2018,10,22,09,58,7.70
2018,10,22,09,59,7.80
2018,10,22,10,00,7.80
2018,10,22,10,01,7.80
2018,10,22,10,02,7.80
2018,10,22,10,03,7.90
2018,10,22,10,04,7.90
2018,10,22,10,05,7.90
2018,10,22,10,06,8.00
2018,10,22,10,07,8.00
2018,10,22,10,08,8.10
2018,10,22,10,09,8.10
2018,10,22,10,10,8.20
2018,10,22,10,11,8.20
2018,10,22,10,12,8.30
2018,10,22,10,13,8.30
2018,10,22,10,14,8.30
2018,10,22,10,15,8.40
2018,10,22,10,16,8.40
2018,10,22,10,17,8.50
2018,10,22,10,18,8.50
2018,10,22,10,19,8.60
2018,10,22,10,20,8.60
2018,10,22,10,21,8.60
2018,10,22,10,22,8.70
2018,10,22,10,23,8.70
2018,10,22,10,24,8.80
2018,10,22,10,25,8.80
2018,10,22,10,26,8.80
2018,10,22,10,27,8.90
2018,10,22,10,28,8.90
2018,10,22,10,29,8.90
2018,10,22,10,30,8.90
2018,10,22,10,31,8.90
2018,10,22,10,32,8.90
2018,10,22,10,33,8.90
2018,10,22,10,34,8.90
2018,10,22,10,35,8.90
2018,10,22,10,36,8.90
2018,10,22,10,37,8.90
2018,10,22,10,38,8.90
2018,10,22,10,39,8.80
2018,10,22,10,40,8.80
2018,10,22,10,41,8.80
2018,10,22,10,42,8.80
2018,10,22,10,43,8.80
2018,10,22,10,44,8.90
2018,10,22,10,45,8.90
2018,10,22,10,46,8.90
2018,10,22,10,47,8.90
2018,10,22,10,48,8.90
2018,10,22,10,49,9.00
2018,10,22,10,50,9.00
2018,10,22,10,51,9.10
2018,10,22,10,52,9.10
2018,10,22,10,53,9.20
2018,10,22,10,54,9.30
2018,10,22,10,55,9.40
2018,10,22,10,56,9.40
2018,10,22,10,57,9.50
2018,10,22,10,58,9.60
2018,10,22,10,59,9.60
2018,10,22,11,00,9.70
2018,10,22,11,01,9.70
2018,10,22,11,02,9.80
2018,10,22,11,03,9.80
2018,10,22,11,04,9.70
2018,10,22,11,05,9.70
2018,10,22,11,06,9.70
2018,10,22,11,07,9.70
2018,10,22,11,08,9.70
2018,10,22,11,09,9.80
2018,10,22,11,10,9.80
2018,10,22,11,11,9.80
2018,10,22,11,12,9.80
2018,10,22,11,13,9.90
2018,10,22,11,14,9.90
2018,10,22,11,15,9.90
2018,10,22,11,16,10.00
2018,10,22,11,17,10.00
2018,10,22,11,18,10.10
2018,10,22,11,19,10.10
2018,10,22,11,20,10.10
2018,10,22,11,21,10.20
2018,10,22,11,22,10.20
2018,10,22,11,23,10.20
2018,10,22,11,24,10.20
2018,10,22,11,25,10.20
2018,10,22,11,26,10.30
2018,10,22,11,27,10.30
2018,10,22,11,28,10.40
2018,10,22,11,29,10.40
2018,10,22,11,30,10.50
2018,10,22,11,31,10.50
2018,10,22,11,32,10.60
2018,10,22,11,33,10.70
2018,10,22,11,34,10.80
2018,10,22,11,35,10.90
2018,10,22,11,36,10.90
2018,10,22,11,37,10.90
2018,10,22,11,38,10.90
2018,10,22,11,39,10.90
2018,10,22,11,40,11.00
2018,10,22,11,41,11.00
2018,10,22,11,42,11.00
2018,10,22,11,43,11.00
2018,10,22,11,44,11.10
2018,10,22,11,45,11.10
2018,10,22,11,46,11.20
2018,10,22,11,47,11.30
2018,10,22,11,48,11.30
2018,10,22,11,49,11.40
2018,10,22,11,50,11.40
2018,10,22,11,51,11.40
2018,10,22,11,52,11.40
2018,10,22,11,53,11.40
2018,10,22,11,54,11.50
2018,10,22,11,55,11.40
2018,10,22,11,56,11.40
2018,10,22,11,57,11.50
2018,10,22,11,58,11.60
2018,10,22,11,59,11.60
2018,10,22,12,00,11.70
2018,10,22,12,01,11.80
2018,10,22,12,02,11.80
2018,10,22,12,03,11.80
2018,10,22,12,04,11.90
2018,10,22,12,05,11.90
2018,10,22,12,06,12.00
2018,10,22,12,07,12.10
2018,10,22,12,08,12.10
2018,10,22,12,09,12.20
2018,10,22,12,10,12.30
2018,10,22,12,11,12.30
2018,10,22,12,12,12.40
2018,10,22,12,13,12.40
2018,10,22,12,14,12.50
2018,10,22,12,15,12.50
2018,10,22,12,16,12.50
2018,10,22,12,17,12.50
2018,10,22,12,18,12.60
2018,10,22,12,19,12.60
2018,10,22,12,20,12.70
2018,10,22,12,21,12.70
2018,10,22,12,22,12.80
2018,10,22,12,23,12.80
2018,10,22,12,24,12.80
2018,10,22,12,25,12.80
2018,10,22,12,26,12.90
2018,10,22,12,27,12.90
2018,10,22,12,28,12.90
2018,10,22,12,29,12.90
2018,10,22,12,30,13.00
2018,10,22,12,31,13.00
2018,10,22,12,32,13.10
2018,10,22,12,33,13.10
2018,10,22,12,34,13.10
2018,10,22,12,35,13.10
2018,10,22,12,36,13.00
2018,10,22,12,37,13.10
2018,10,22,12,38,13.10
2018,10,22,12,39,13.10
2018,10,22,12,40,13.20
2018,10,22,12,41,13.20
2018,10,22,12,42,13.20
2018,10,22,12,43,13.30
2018,10,22,12,44,13.30
2018,10,22,12,45,13.30
2018,10,22,12,46,13.30
2018,10,22,12,47,13.30
2018,10,22,12,48,13.30
2018,10,22,12,49,13.40
2018,10,22,12,50,13.40
2018,10,22,12,51,13.50
2018,10,22,12,52,13.50
2018,10,22,12,53,13.60
2018,10,22,12,54,13.60
2018,10,22,12,55,13.60
2018,10,22,12,56,13.60
2018,10,22,12,57,13.60
2018,10,22,12,58,13.60
2018,10,22,12,59,13.70
2018,10,22,13,00,13.70
2018,10,22,13,01,13.90
2018,10,22,13,02,14.00
2018,10,22,13,03,13.90
2018,10,22,13,04,13.90
2018,10,22,13,05,13.90
2018,10,22,13,06,13.80
2018,10,22,13,07,13.80
2018,10,22,13,08,13.80
2018,10,22,13,09,13.80
2018,10,22,13,10,13.80
2018,10,22,13,11,13.80
2018,10,22,13,12,13.90
2018,10,22,13,13,13.90
2018,10,22,13,14,13.90
2018,10,22,13,15,14.00
2018,10,22,13,16,14.00
2018,10,22,13,17,14.10
2018,10,22,13,18,14.00
2018,10,22,13,19,13.90
2018,10,22,13,20,13.90
2018,10,22,13,21,13.80
2018,10,22,13,22,13.80
2018,10,22,13,23,13.80
2018,10,22,13,24,13.90
2018,10,22,13,25,13.90
2018,10,22,13,26,13.90
2018,10,22,13,27,13.90
2018,10,22,13,28,14.00
2018,10,22,13,29,14.00
2018,10,22,13,30,14.00
2018,10,22,13,31,14.00
2018,10,22,13,32,14.10
2018,10,22,13,33,14.10
2018,10,22,13,34,14.20
2018,10,22,13,35,14.20
2018,10,22,13,36,14.30
2018,10,22,13,37,14.30
2018,10,22,13,38,14.30
2018,10,22,13,39,14.30
2018,10,22,13,40,14.30
2018,10,22,13,41,14.30
2018,10,22,13,42,14.30
2018,10,22,13,43,14.30
2018,10,22,13,44,14.20
2018,10,22,13,45,14.20
2018,10,22,13,46,14.20
2018,10,22,13,47,14.10
2018,10,22,13,48,14.10
2018,10,22,13,49,14.10
2018,10,22,13,50,14.10
2018,10,22,13,51,14.10
2018,10,22,13,52,14.20
2018,10,22,13,53,14.20
2018,10,22,13,54,14.20
2018,10,22,13,55,14.30
2018,10,22,13,56,14.30
2018,10,22,13,57,14.40
2018,10,22,13,58,14.50
2018,10,22,13,59,14.60
2018,10,22,14,00,14.60
2018,10,22,14,01,14.70
2018,10,22,14,02,14.80
2018,10,22,14,03,14.80
2018,10,22,14,04,14.80
2018,10,22,14,05,14.90
2018,10,22,14,06,14.90
2018,10,22,14,07,14.90
2018,10,22,14,08,14.90
2018,10,22,14,09,14.90
2018,10,22,14,10,14.80
2018,10,22,14,11,14.80
2018,10,22,14,12,14.80
2018,10,22,14,13,14.70
2018,10,22,14,14,14.70
2018,10,22,14,15,14.70
2018,10,22,14,16,14.70
2018,10,22,14,17,14.70
2018,10,22,14,18,14.80
2018,10,22,14,19,14.80
2018,10,22,14,20,14.90
2018,10,22,14,21,14.90
2018,10,22,14,22,15.00
2018,10,22,14,23,15.00
2018,10,22,14,24,15.10
2018,10,22,14,25,15.10
2018,10,22,14,26,15.10
2018,10,22,14,27,15.20
2018,10,22,14,28,15.20
2018,10,22,14,29,15.20
2018,10,22,14,30,15.20
2018,10,22,14,31,15.20
2018,10,22,14,32,15.10
2018,10,22,14,33,15.10
2018,10,22,14,34,15.20
2018,10,22,14,35,15.20
2018,10,22,14,36,15.20
2018,10,22,14,37,15.20
2018,10,22,14,38,15.20
2018,10,22,14,39,15.20
2018,10,22,14,40,15.20
2018,10,22,14,41,15.20
2018,10,22,14,42,15.20
2018,10,22,14,43,15.30
2018,10,22,14,44,15.30
2018,10,22,14,45,15.30
2018,10,22,14,46,15.30
2018,10,22,14,47,15.30
2018,10,22,14,48,15.30
2018,10,22,14,49,15.30
2018,10,22,14,50,15.30
2018,10,22,14,51,15.20
2018,10,22,14,52,15.20
2018,10,22,14,53,15.10
2018,10,22,14,54,15.10
2018,10,22,14,55,15.10
2018,10,22,14,56,15.10
2018,10,22,14,57,15.10
2018,10,22,14,58,15.10
2018,10,22,14,59,15.10
2018,10,22,15,00,15.10
2018,10,22,15,01,15.20
2018,10,22,15,02,15.20
2018,10,22,15,03,15.20
2018,10,22,15,04,15.30
2018,10,22,15,05,15.30
2018,10,22,15,06,15.50
2018,10,22,15,07,15.50
2018,10,22,15,08,15.60
2018,10,22,15,09,15.70
2018,10,22,15,10,15.70
2018,10,22,15,11,15.70
2018,10,22,15,12,15.80
2018,10,22,15,13,15.80
2018,10,22,15,14,15.80
2018,10,22,15,15,15.80
2018,10,22,15,16,15.80
2018,10,22,15,17,15.90
2018,10,22,15,18,15.90
2018,10,22,15,19,15.90
2018,10,22,15,20,15.90
2018,10,22,15,21,15.90
2018,10,22,15,22,15.90
2018,10,22,15,23,16.00
2018,10,22,15,24,16.00
2018,10,22,15,25,16.00
2018,10,22,15,26,15.90
2018,10,22,15,27,15.90
2018,10,22,15,28,15.90
2018,10,22,15,29,15.90
2018,10,22,15,30,15.80
2018,10,22,15,31,15.80
2018,10,22,15,32,15.80
2018,10,22,15,33,15.80
2018,10,22,15,34,15.80
2018,10,22,15,35,15.80
2018,10,22,15,36,15.80
2018,10,22,15,37,15.80
2018,10,22,15,38,15.80
2018,10,22,15,39,15.70
2018,10,22,15,40,15.70
2018,10,22,15,41,15.70
2018,10,22,15,42,15.70
2018,10,22,15,43,15.60
2018,10,22,15,44,15.60
2018,10,22,15,45,15.60
2018,10,22,15,46,15.60
2018,10,22,15,47,15.60
2018,10,22,15,48,15.60
2018,10,22,15,49,15.60
2018,10,22,15,50,15.60
2018,10,22,15,51,15.70
2018,10,22,15,52,15.60
2018,10,22,15,53,15.60
2018,10,22,15,54,15.60
2018,10,22,15,55,15.60
2018,10,22,15,56,15.60
2018,10,22,15,57,15.70
2018,10,22,15,58,15.70
2018,10,22,15,59,15.70
2018,10,22,16,00,15.70
2018,10,22,16,01,15.70
2018,10,22,16,02,15.70
2018,10,22,16,03,15.70
2018,10,22,16,04,15.70
2018,10,22,16,05,15.70
2018,10,22,16,06,15.80
2018,10,22,16,07,15.80
2018,10,22,16,08,15.80
2018,10,22,16,09,15.70
2018,10,22,17,04,14.80
2018,10,22,17,05,14.70
2018,10,22,17,06,14.60
2018,10,22,17,07,14.60
2018,10,22,17,08,14.60
2018,10,22,17,09,14.60
2018,10,22,17,10,14.50
2018,10,22,17,11,14.50
2018,10,22,17,12,14.50
2018,10,22,17,13,14.50
2018,10,22,17,14,14.40
2018,10,22,17,15,14.40
2018,10,22,17,16,14.40
2018,10,22,17,17,14.40
2018,10,22,17,18,14.40
2018,10,22,17,19,14.30
2018,10,22,17,20,14.30
2018,10,22,17,21,14.30
2018,10,22,17,22,14.20
2018,10,22,17,23,14.20
2018,10,22,17,24,14.20
2018,10,22,17,25,14.10
2018,10,22,17,26,14.10
2018,10,22,17,27,14.10
2018,10,22,17,28,14.00
2018,10,22,17,29,14.00
2018,10,22,17,30,13.90
2018,10,22,17,31,13.90
2018,10,22,17,32,13.80
2018,10,22,17,33,13.80
2018,10,22,17,34,13.70
2018,10,22,17,35,13.70
2018,10,22,17,36,13.60
2018,10,22,17,37,13.60
2018,10,22,17,38,13.60
2018,10,22,17,39,13.50
2018,10,22,17,40,13.50
2018,10,22,17,41,13.40
2018,10,22,17,42,13.40
2018,10,22,17,43,13.40
2018,10,22,17,44,13.30
2018,10,22,17,45,13.20
2018,10,22,17,46,13.20
2018,10,22,17,47,13.10
2018,10,22,17,48,13.10
2018,10,22,17,49,13.10
2018,10,22,17,50,13.00
2018,10,22,17,51,13.00
2018,10,22,17,52,12.90
2018,10,22,17,53,12.90
2018,10,22,17,54,12.80
2018,10,22,17,55,12.70
2018,10,22,17,56,12.70
2018,10,22,17,57,12.60
2018,10,22,17,58,12.50
2018,10,22,17,59,12.40
2018,10,22,18,00,12.30
2018,10,22,18,01,12.20
2018,10,22,18,02,12.10
2018,10,22,18,03,12.00
2018,10,22,18,04,11.90
2018,10,22,18,05,11.80
2018,10,22,18,06,11.70
2018,10,22,18,07,11.70
2018,10,22,18,08,11.60
2018,10,22,18,09,11.50
2018,10,22,18,10,11.40
2018,10,22,18,11,11.30
2018,10,22,18,12,11.20
2018,10,22,18,13,11.20
2018,10,22,18,14,11.10
2018,10,22,18,15,11.00
2018,10,22,18,16,10.90
2018,10,22,18,17,10.90
2018,10,22,18,18,10.80
2018,10,22,18,19,10.70
2018,10,22,18,20,10.60
2018,10,22,18,21,10.60
2018,10,22,18,22,10.50
2018,10,22,18,23,10.40
2018,10,22,18,24,10.30
2018,10,22,18,25,10.20
2018,10,22,18,26,10.20
2018,10,22,18,27,10.10
2018,10,22,18,28,10.00
2018,10,22,18,29,10.00
2018,10,22,18,30,9.90
2018,10,22,18,31,9.80
2018,10,22,18,32,9.80
2018,10,22,18,33,9.80
2018,10,22,18,34,9.70
2018,10,22,18,35,9.70
2018,10,22,18,36,9.60
2018,10,22,18,37,9.60
2018,10,22,18,38,9.50
2018,10,22,18,39,9.50
2018,10,22,18,40,9.40
2018,10,22,18,41,9.40
2018,10,22,18,42,9.30
2018,10,22,18,43,9.30
2018,10,22,18,44,9.30
2018,10,22,18,45,9.20
2018,10,22,18,46,9.20
2018,10,22,18,47,9.10
2018,10,22,18,48,9.10
2018,10,22,18,49,9.10
2018,10,22,18,50,9.00
2018,10,22,18,51,9.00
2018,10,22,18,52,9.00
2018,10,22,18,53,8.90
2018,10,22,18,54,8.90
2018,10,22,18,55,8.90
2018,10,22,18,56,8.90
2018,10,22,18,57,8.90
2018,10,22,18,58,8.90
2018,10,22,18,59,8.80
2018,10,22,19,00,8.80
2018,10,22,19,01,8.80
2018,10,22,19,02,8.80
2018,10,22,19,03,8.80
2018,10,22,19,04,8.80
2018,10,22,19,05,8.80
2018,10,22,19,06,8.80
2018,10,22,19,07,8.80
2018,10,22,19,08,8.80
2018,10,22,19,09,8.80
2018,10,22,19,10,8.80
2018,10,22,19,11,8.80
2018,10,22,19,12,8.80
2018,10,22,19,13,8.80
2018,10,22,19,14,8.80
2018,10,22,19,15,8.80
2018,10,22,19,16,8.80
2018,10,22,19,17,8.80
2018,10,22,19,18,8.80
2018,10,22,19,19,8.80
2018,10,22,19,20,8.80
2018,10,22,19,21,8.80
2018,10,22,19,22,8.80
2018,10,22,19,23,8.80
2018,10,22,19,24,8.80
2018,10,22,19,25,8.80
2018,10,22,19,26,8.90
2018,10,22,19,27,8.90
2018,10,22,19,28,8.90
2018,10,22,19,29,8.90
2018,10,22,19,30,8.90
2018,10,22,19,31,8.90
2018,10,22,19,32,8.90
2018,10,22,19,33,8.90
2018,10,22,19,34,8.90
2018,10,22,19,35,8.90
2018,10,22,19,36,8.90
2018,10,22,19,37,8.90
2018,10,22,19,38,8.90
2018,10,22,19,39,8.90
2018,10,22,19,40,8.90
2018,10,22,19,41,9.00
2018,10,22,19,42,9.00
2018,10,22,19,43,9.00